User: anonymous   Login
Location: Krakow
(50.0212°N, 19.9423°E)
Time: 09:34:11
(UTC+01:00)
Language:

Hubble Space Telescope - Orbit

View from above orbital plane
View from above orbital plane
View from above satellite
View from above satellite

Ground track
Ground track

The orbit data is extracted from the following two-line orbital elements,

1 20580U 90037B   24063.85539275  .00006190  00000-0  30251-3 0  9993
2 20580  28.4695 329.9894 0002708 331.6887  28.3557 15.16165504661027
Epoch (UTC): 03 March 2024 20:31:45
Eccentricity: 0.0002708
inclination: 28.4695°
perigee height: 515 km
apogee height: 519 km
right ascension of ascending node: 329.9894°
argument of perigee: 331.6887°
revolutions per day: 15.16165504
mean anomaly at epoch: 28.3557°
orbit number at epoch: 66102

The dashed part of the orbit path shows where the satellite is in the earth's shadow,  

DLR